Location: St Paul
(33.9360°N, 83.4200°W)
Time: 13:42:06
(UTC-04:00)

METEOR-M - Pass Details

Date: 21 March 2019
Orbit: 816 x 819 km, 98.4° (Epoch: 14 October)

Event Time Altitude Azimuth Distance (km) Brightness Sun altitude
Rises 05:56:41 0° 40° (NE) 3,349 8.2 -21.3°
Reaches altitude 10° 06:01:08 10° 75° (ENE) 2,411 7.8 -20.4°
Maximum altitude 06:02:35 11° 91° (E) 2,335 7.6 -20.1°
Drops below altitude 10° 06:04:02 10° 107° (ESE) 2,407 7.4 -19.8°
Sets 06:08:26 0° 142° (SE) 3,334 7.6 -18.9°
